FW8448 Weather Reports


Display with metric or nautical units.
time (UTC)temp
F
wind
direction
speed
MPH
gust
MPH
rain 1hr
in
rain 24hr
in
rain mn
in
humidity
%
barometer
mb
20260831110101 68 0 0.0 0.0 0.00 0.00 0.00 96 1018.6
20260831104604 68 0 0.0 0.0 0.00 0.00 0.00 96 1018.6
20260831103102 68 0 0.0 0.0 0.00 0.00 0.00 96 1018.4
20260831101601 68 0 0.0 0.0 0.00 0.00 0.00 96 1018.2
20260831100058 68 0 0.0 0.0 0.00 0.00 0.00 96 1018.1
20260831094607 68 0 0.0 0.0 0.00 0.00 0.00 95 1018.2
20260831093152 69 0 0.0 1.0 0.00 0.00 0.00 95 1018.3
20260831091604 69 0 0.0 0.0 0.00 0.00 0.00 95 1018.4
20260831090100 70 0 0.0 1.0 0.00 0.00 0.00 95 1018.4
20260831084651 70 0 0.0 1.0 0.00 0.00 0.00 95 1018.4
20260831083107 70 0 0.0 0.0 0.00 0.00 0.00 94 1018.2
20260831081552 70 0 0.0 0.0 0.00 0.00 0.00 94 1018.0
20260831080122 71 0 0.0 0.0 0.00 0.00 0.00 93 1018.0
20260831074602 71 0 0.0 0.0 0.00 0.00 0.00 93 1017.9
20260831073058 72 0 0.0 1.0 0.00 0.00 0.00 92 1018.0
20260831071612 72 0 0.0 1.0 0.00 0.00 0.00 91 1017.9
20260831070107 73 0 0.0 1.0 0.00 0.00 0.00 89 1017.9
20260831064559 73 0 0.0 4.0 0.00 0.00 0.00 89 1017.7
20260831063111 73 0 0.0 2.0 0.00 0.00 0.00 90 1017.6
20260831061600 72 0 0.0 0.0 0.00 0.00 0.00 92 1017.8
20260831060115 72 0 0.0 0.0 0.00 0.00 0.00 92 1018.4
20260831054556 73 0 0.0 0.0 0.00 0.00 0.00 91 1018.5
20260831053105 73 0 0.0 0.0 0.00 0.00 0.00 91 1018.4
20260831051602 73 0 0.0 0.0 0.00 0.00 0.00 91 1018.5
20260831050112 73 0 0.0 1.0 0.00 0.00 0.00 90 1018.5
20260831044601 73 0 0.0 3.0 0.00 0.00 0.00 90 1018.5
20260831043100 73 0 0.0 2.0 0.00 0.00 0.00 91 1018.0
20260831041559 73 0 0.0 1.0 0.00 0.00 0.00 92 1018.3
20260831040110 73 0 0.0 1.0 0.00 0.00 0.00 92 1018.2
20260831034612 72 0 0.0 1.0 0.00 0.00 0.00 93 1018.3
20260831033102 72 0 0.0 1.0 0.00 0.00 0.00 94 1018.4
20260831031558 71 0 0.0 2.0 0.00 0.00 0.00 95 1018.5
20260831030106 71 0 0.0 1.0 0.00 0.00 0.00 95 1018.5
20260831024602 71 0 0.0 0.0 0.00 0.00 0.00 95 1018.6
20260831023105 71 0 0.0 1.0 0.00 0.00 0.00 95 1018.7
20260831021557 71 0 0.0 0.0 0.00 0.00 0.00 95 1018.6
20260831014618 72 0 0.0 0.0 0.00 0.00 0.00 94 1018.4
20260831013058 72 0 0.0 0.0 0.00 0.00 0.00 94 1018.3
20260831011559 72 0 0.0 0.0 0.00 0.00 0.00 93 1018.3
20260831010107 73 0 0.0 0.0 0.00 0.00 0.00 93 1018.2
20260831004602 74 0 0.0 0.0 0.00 0.00 0.00 92 1018.2
20260831003058 74 0 0.0 0.0 0.00 0.00 0.00 92 1018.2
20260831001625 76 0 0.0 1.0 0.00 0.00 0.00 89 1018.3
20260831000105 77 0 0.0 0.0 0.00 0.00 0.00 89 1018.2
20260830234602 78 0 0.0 0.0 0.00 0.00 0.00 87 1018.2
20260830233118 80 0 0.0 1.0 0.00 0.00 0.00 85 1018.0
20260830231601 82 0 0.0 1.0 0.00 0.00 0.00 82 1018.2
20260830230125 83 0 0.0 2.0 0.00 0.00 0.00 78 1018.1
20260830224601 85 0 1.0 4.0 0.00 0.00 0.00 73 1017.9
20260830223055 86 0 0.0 0.0 0.00 0.00 0.00 72 1017.8
20260830221559 86 0 0.0 3.0 0.00 0.00 0.00 72 1017.8
20260830220106 86 0 0.0 0.0 0.00 0.00 0.00 72 1017.6
20260830214558 85 0 0.0 0.0 0.00 0.00 0.00 73 1017.4
20260830213104 84 0 0.0 0.0 0.00 0.00 0.00 73 1017.8
20260830211601 84 0 2.0 5.0 0.00 0.00 0.00 71 1017.9
20260830210106 84 182 2.0 7.0 0.00 0.00 0.00 71 1017.8
20260830204606 83 170 1.0 4.0 0.00 0.00 0.00 77 1018.0
20260830203102 81 0 0.0 3.0 0.00 0.00 0.00 81 1018.3
20260830201608 80 0 1.0 3.0 0.00 0.00 0.00 78 1018.2
20260830200105 82 214 0.0 2.0 0.00 0.00 0.00 77 1018.3
20260830194602 83 0 0.0 3.0 0.00 0.00 0.00 74 1018.5
20260830193102 83 0 1.0 11.0 0.00 0.00 0.00 72 1018.8
20260830191608 84 228 1.0 4.0 0.00 0.00 0.00 71 1019.2
20260830184606 84 170 1.0 5.0 0.00 0.00 0.00 71 1019.8
20260830183106 83 124 1.0 2.0 0.00 0.00 0.00 72 1020.2
20260830181559 82 272 0.0 3.0 0.00 0.00 0.00 70 1020.5
20260830180059 81 272 0.0 3.0 0.00 0.00 0.00 75 1020.7
20260830174616 81 0 0.0 0.0 0.00 0.00 0.00 77 1020.9
20260830173104 80 0 0.0 1.0 0.00 0.00 0.00 75 1021.1
20260830171606 81 0 0.0 0.0 0.00 0.00 0.00 75 1021.2
20260830170055 80 0 0.0 1.0 0.00 0.00 0.00 75 1021.2
20260830164601 80 276 0.0 2.0 0.00 0.00 0.00 79 1021.5
20260830163101 80 0 0.0 2.0 0.00 0.00 0.00 78 1021.5
20260830161552 79 0 0.0 3.0 0.00 0.00 0.00 80 1021.3
20260830160112 79 0 1.0 6.0 0.00 0.00 0.00 80 1021.3
20260830154606 79 257 1.0 4.0 0.00 0.00 0.00 82 1021.2
20260830153057 78 272 1.0 4.0 0.00 0.00 0.00 82 1021.0
20260830151619 79 275 0.0 10.0 0.00 0.00 0.00 81 1020.6
20260830150114 79 267 0.0 4.0 0.00 0.00 0.00 77 1020.3
20260830144605 79 0 0.0 0.0 0.00 0.00 0.00 78 1020.0
20260830143104 77 0 0.0 0.0 0.00 0.00 0.00 81 1019.9
20260830141559 78 0 0.0 0.0 0.00 0.00 0.00 79 1019.8
20260830140109 77 0 0.0 0.0 0.00 0.00 0.00 84 1019.7
20260830134607 75 0 0.0 4.0 0.00 0.00 0.00 85 1019.8
20260830133105 73 0 0.0 0.0 0.00 0.00 0.00 89 1019.6
20260830131600 71 0 0.0 0.0 0.00 0.00 0.00 90 1019.6
20260830130108 70 0 0.0 0.0 0.00 0.00 0.00 94 1019.6
20260830124556 69 0 0.0 0.0 0.00 0.00 0.00 97 1019.8
20260830123100 66 0 0.0 0.0 0.00 0.00 0.00 98 1019.8
20260830121606 64 0 0.0 0.0 0.00 0.00 0.00 97 1019.9
20260830120105 64 0 0.0 0.0 0.00 0.00 0.00 97 1019.8
20260830114613 63 0 0.0 0.0 0.00 0.00 0.00 97 1020.0
20260830113103 63 0 0.0 0.0 0.00 0.00 0.00 97 1020.0
20260830111601 63 0 0.0 0.0 0.00 0.00 0.00 97 1019.8